{"data":{"norad_id":67077,"intl_designator":"2025-298C","name":"STARLINK-36243","alt_names":[],"object_type":"PAYLOAD","status":"ACTIVE","operator":null,"country":"US","launch_date":"2025-12-14","launch_site_code":"AFWTR","launch_vehicle":null,"mission":null,"orbit_class":"UNKNOWN","rcs_meters":null,"size_class":null,"mass_kg":null,"dimensions":null,"purposes":["comms"],"wikipedia_slug":null,"has_3d_model":false,"image_url":null,"decayed_at":null,"tle_current":{"epoch":"2026-05-25T03:13:29.077248Z","epoch_age_seconds":53637,"freshness":"FRESH","line1":"1 67077U 25298C   26145.13436432  .00002096  00000+0  18336-3 0  9997","line2":"2 67077  70.0011 181.8893 0003697 267.7339  92.3397 14.98335196 24668","mean_motion":14.98335196,"eccentricity":0.0003697,"inclination_deg":70.0011,"raan_deg":181.8893,"arg_perigee_deg":267.7339,"mean_anomaly_deg":92.3397,"bstar":0.00018336,"rev_number":2466,"period_min":96.106665841146,"perigee_km":569.47034241808,"apogee_km":574.60930316086,"semimajor_km":6950.1768227895,"source":"CELESTRAK","updated_at":"2026-05-25T13:38:21.443249Z"}}}